This demonstration page uses our WeatherBlox Daily Observations layout. Learn more.

Left ArrowRight Arrow

41.86663, -103.66717

Hourly Observations for November 5, 2016

Temp ( °F °C ) Dew Point ( °F °C ) Humidity (%) Winds ( mph kmh ) Pressure ( in mb ) Visibility ( mi km ) Precip ( " mm )
12:53 am 00:53 Clear 44 6.7 28 -2.2 53 53 ENE 8 13 30.19 1022 10 16 N/A
1:53 am 01:53 Clear 43 6.1 27 -2.8 53 53 E 7 11 30.15 1021 10 16 N/A
2:53 am 02:53 Clear 39 3.9 28 -2.2 65 65 N N/A 30.16 1021 10 16 N/A
3:53 am 03:53 Clear 36 2.2 27 -2.8 70 70 SE 3 6 30.15 1021 10 16 N/A
4:53 am 04:53 Clear 34 1.1 25 -3.9 70 70 N N/A 30.17 1022 10 16 N/A
5:53 am 05:53 Clear 33 0.6 25 -3.9 72 72 N N/A 30.18 1022 10 16 N/A
6:53 am 06:53 Clear 34 1.1 25 -3.9 70 70 ENE 3 6 30.21 1023 10 16 N/A
7:53 am 07:53 Sunny with Light Snow 32 undefined 25 -3.9 75 75 NNW 6 9 30.22 1023 9 14 N/A
8:53 am 08:53 Sunny 40 4.4 29 -1.7 65 65 WNW 5 7 30.21 1023 10 16 N/A
9:53 am 09:53 Sunny 46 7.8 29 -1.7 51 51 N N/A 30.21 1023 10 16 N/A
10:53 am 10:53 Sunny 51 10.6 30 -1.1 44 44 SSE 5 7 30.18 1022 10 16 N/A
11:53 am 11:53 Sunny 58 14.4 30 -1.1 35 35 VRB 5 7 30.14 1021 10 16 N/A
12:53 pm 12:53 Sunny 65 18.3 32 undefined 29 29 ESE 8 13 30.07 1018 10 16 N/A
1:53 pm 13:53 Sunny 69 20.6 33 0.6 26 26 SE 7 11 30.03 1017 10 16 N/A
2:53 pm 14:53 Sunny 73 22.8 36 2.2 26 26 ESE 12 19 30.00 1016 10 16 N/A
3:53 pm 15:53 Sunny 74 23.3 36 2.2 25 25 SSE 14 22 29.99 1016 10 16 N/A
4:53 pm 16:53 Sunny 68 20 37 2.8 32 32 SSE 10 17 30.01 1016 10 16 N/A
5:53 pm 17:53 Clear 59 15 35 1.7 41 41 E 8 13 30.04 1017 10 16 N/A
6:53 pm 18:53 Clear 56 13.3 35 1.7 46 46 E 8 13 30.05 1018 10 16 N/A
7:53 pm 19:53 Clear 55 12.8 36 2.2 49 49 ESE 7 11 30.06 1018 10 16 N/A
8:53 pm 20:53 Clear 59 15 39 3.9 48 48 SE 8 13 30.03 1017 10 16 N/A
9:53 pm 21:53 Mostly Clear 58 14.4 40 4.4 51 51 SE 7 11 30.02 1017 10 16 N/A
10:53 pm 22:53 Clear 52 11.1 39 3.9 61 61 ESE 9 15 30.01 1016 10 16 N/A
11:53 pm 23:53 Clear 55 12.8 39 3.9 55 55 SE 15 24 29.97 1015 10 16 N/A

Powered by AerisWeather